| Date | Time | Temp. (oF) | Dew Point (oF) | Rel. Hum. (%) | Press. (in.) | Wind Dir. | Wind Speed (mph) | Hourly Rainfall (in.) |
|
|---|---|---|---|---|---|---|---|---|---|
| 1 | 12/06 | 00:00 | 27 | 26 | 98 | 30.02 | NW | 1 | 0.00 |
| 2 | 12/05 | 23:00 | 27 | 26 | 96 | 30.04 | NW | 3 | 0.00 |
| 3 | 12/05 | 22:00 | 28 | 26 | 93 | 30.06 | WNW | 2 | 0.00 |
| 4 | 12/05 | 21:00 | 28 | 25 | 92 | 30.06 | ESE | 0 | 0.00 |
| 5 | 12/05 | 20:00 | 28 | 25 | 90 | 30.07 | NE | 4 | 0.00 |
| 6 | 12/05 | 19:00 | 29 | 25 | 85 | 30.08 | ENE | 3 | 0.00 |
| 7 | 12/05 | 18:00 | 29 | 23 | 80 | 30.11 | S | 3 | 0.00 |
| 8 | 12/05 | 17:00 | 30 | 23 | 77 | 30.12 | E | 1 | 0.00 |
| 9 | 12/05 | 16:00 | 30 | 22 | 74 | 30.12 | ENE | 2 | 0.00 |
| 10 | 12/05 | 15:00 | 30 | 22 | 73 | 30.12 | ESE | 4 | 0.00 |
| 11 | 12/05 | 14:00 | 31 | 23 | 72 | 30.13 | NE | 3 | 0.00 |
| 12 | 12/05 | 13:00 | 31 | 21 | 67 | 30.13 | N | 7 | 0.00 |
| 13 | 12/05 | 12:00 | 31 | 21 | 67 | 30.18 | NNW | 7 | 0.00 |
| 14 | 12/05 | 11:00 | 32 | 22 | 68 | 30.21 | NNE | 3 | 0.00 |
| 15 | 12/05 | 10:00 | 31 | 23 | 72 | 30.23 | NNW | 3 | 0.00 |
| 16 | 12/05 | 09:00 | 30 | 23 | 78 | 30.23 | NNE | 4 | 0.00 |
| 17 | 12/05 | 08:00 | 29 | 23 | 78 | 30.22 | NW | 3 | 0.00 |
| 18 | 12/05 | 07:00 | 28 | 24 | 85 | 30.21 | NNW | 3 | 0.00 |
| 19 | 12/05 | 06:00 | 28 | 22 | 81 | 30.19 | NNW | 0 | 0.00 |
| 20 | 12/05 | 05:00 | 29 | 23 | 78 | 30.18 | NNW | 1 | 0.00 |
| 21 | 12/05 | 04:00 | 30 | 23 | 75 | 30.18 | WNW | 2 | 0.00 |
| 22 | 12/05 | 03:00 | 31 | 25 | 79 | 30.18 | NNW | 2 | 0.00 |
| 23 | 12/05 | 02:00 | 31 | 25 | 80 | 30.16 | NW | 3 | 0.00 |
| 24 | 12/05 | 01:00 | 32 | 26 | 80 | 30.14 | WNW | 4 | 0.00 |